Regional Weather Roundup
Issued by NWS

Home | Current Version | Previous Version | Graphics & Text | Print | Product List | Glossary On
Versions: 1 2 3 4 5 6 7 8 9 10 11 12 13 14 15 16 17 18 19 20 21 22 23 24 25 26 27 28 29 30 31 32 33 34 35 36 37 38 39 40 41 42 43 44 45 46 47 48 49 50
000
ASUS45 KBOU 290907
RWRCO

WEATHER ROUNDUP FOR COLORADO
NATIONAL WEATHER SERVICE DENVER/BOULDER CO
300 AM MDT MON JUN 29 2015

NOTE: "FAIR" INDICATES FEW OR NO CLOUDS BELOW 12000 FEET WITH NO
SIGNIFICANT WEATHER AND/OR OBSTRUCTIONS TO VISIBILITY.

COZ001>005-013-030-031-291000-
...NORTHWEST COLORADO...

CITY           SKY/WX    TMP DP  RH WIND       PRES   REMARKS
CRAIG          CLOUDY    68  45  43 NE7       30.25S
HAYDEN         CLOUDY    64  43  45 E12       30.28S
MEEKER         MOCLDY    60  45  57 E5        30.26R
MOUNT WERNER   NOT AVBL
STEAMBOAT SPGS CLOUDY    60  46  61 CALM      30.30F
WALDEN         CLEAR     52  43  71 SE5       30.40S
$$

COZ006>008-011-291000-
...WEST CENTRAL VALLEYS...

CITY           SKY/WX    TMP DP  RH WIND       PRES   REMARKS
GRAND JUNCTION PTCLDY    78  43  28 SE16      30.11R
MONTROSE       PTCLDY    74  44  34 SE10      30.23R
EAGLE          NOT AVBL
RIFLE          MOCLDY    73  45  36 E9        30.19R
DELTA          PTCLDY    77  43  29 NE9       30.19S
NUCLA          PTCLDY    72  41  33 SE3       30.27F
$$

COZ017>023-064>068-291000-
...SOUTHWEST COLORADO...

CITY           SKY/WX    TMP DP  RH WIND       PRES   REMARKS
DURANGO        MOCLDY    59  46  62 N7        30.34R
CORTEZ         CLEAR     68  43  40 N3        30.26R
PAGOSA SPRINGS MOCLDY    60  46  60 CALM      30.41F
TELLURIDE      PTCLDY    62  40  44 E5        30.51S
WOLF CREEK PAS NOT AVBL
$$

COZ009-010-012-014-032>034-037-058>063-291000-
...CENTRAL COLORADO...

CITY           SKY/WX    TMP DP  RH WIND       PRES   REMARKS
ASPEN          PTCLDY    58  45  62 S6        30.37F
BUENA VISTA    PTCLDY    54  50  88 CALM      30.44F
COPPER MTN     PTCLDY    55  32  41 S7        30.70F
BERTHOUD PASS  CLOUDY    46  36  66 W8        30.75F
COTTONWOOD PAS NOT AVBL
GUNNISON       MOCLDY    57  46  67 N5        30.46F
KREMMLING      PTCLDY    54  46  76 CALM      30.39F
LEADVILLE      PTCLDY    43  42  97 N3        30.55F
MONARCH PASS   MOCLDY    43  37  81 SW13      30.80F
SALIDA         PTCLDY    56  51  82 CALM      30.48S
SUNLIGHT       MOCLDY    57  41  54 CALM      30.63F
WILKERSON PASS MOCLDY    50  37  62 W7        30.67F
$$

COZ069>075-291000-
...SAN LUIS VALLEY/SANGRE DE CRISTO MOUNTAINS...

CITY           SKY/WX    TMP DP  RH WIND       PRES   REMARKS
ALAMOSA        MOCLDY    53  48  83 E5        30.40F
LA VETA PASS   PTCLDY    46  37  71 MISG      30.54F
SAGUACHE       MOCLDY    54  48  82 N9        30.45F
$$

COZ035-036-038>040-291000-
...NORTHERN COLORADO FRONT RANGE...

CITY           SKY/WX    TMP DP  RH WIND       PRES   REMARKS
DENVER INTL AP CLOUDY    65  52  62 SW8       30.18F
DMNS CITY PARK   N/A     65  53  64 E8        30.18F
AURORA         MOCLDY    65  51  60 SW9       30.20F
FRONT RANGE AP CLOUDY    66  54  63 MISG      30.19F
ERIE MUNI ARPT CLOUDY    65  53  65 CALM      30.16F
BOULDER MUN AP CLOUDY    64  52  63 CALM      30.17F
CENTENNIAL     CLOUDY    64  51  62 SE7       30.21F
BROOMFIELD     CLOUDY    66  52  59 CALM      30.20F
FORT COLLINS   MOCLDY    66  57  72 CALM      30.18S
LONGMONT       MOCLDY    66  56  70 CALM      30.18F
$$

COZ041-046-047-076>085-087-088-291000-
...PIKES PEAK/PALMER DIVIDE AND SOUTHERN FOOTHILLS...

CITY           SKY/WX    TMP DP  RH WIND       PRES   REMARKS
COLO. SPRINGS  MOCLDY    58  53  84 NE5       30.28F
A. F. ACADEMY  MOCLDY    55  53  95 N5        30.28F
ELLICOTT       MOCLDY   N/A N/A N/A N3        30.26F
FALCON         MOCLDY    56  51  81 W5        30.32F
FORT CARSON    PTCLDY    58  55  89 NW10      30.24F
LIMON          CLOUDY    59  53  80 W3        30.20F
MONUMENT HILL  CLOUDY    57  48  72 MISG        N/A
TRINIDAD       MOCLDY    62  52  69 W8        30.25F
$$

COZ042>045-048>051-090-091-291000-
...NORTHEAST COLORADO...

CITY           SKY/WX    TMP DP  RH WIND       PRES   REMARKS
GREELEY ARPT   CLOUDY    64  59  82 CALM      30.15S
AKRON          PTCLDY    65  53  65 SW10      30.14F
BURLINGTON     PTCLDY    62  53  72 W8        30.15F
WRAY           PTCLDY    64  54  70 W5        30.10F
STERLING       PTCLDY    63  57  82 SW3       30.11F
HOLYOKE        PTCLDY    63  57  82 CALM      30.11F
FORT MORGAN    PTCLDY    61   8  12 CALM      30.14F
$$

COZ086-089-092>099-291000-
...SOUTHEAST COLORADO...

CITY           SKY/WX    TMP DP  RH WIND       PRES   REMARKS
PUEBLO         PTCLDY    62  57  83 CALM      30.17F
LA JUNTA       MOCLDY    64  56  75 NW9       30.14R
LAMAR          PTCLDY    63  59  87 E8        30.10F
SPRINGFIELD      N/A     63  55  75 NE7       30.15S
$$



USA.gov is the U.S. government's official web portal to all federal, state and local government web resources and services.